Find Starlink 34374

NORAD ID: 64308 Int'l Des: 2025-123 Owner: SPXS Country: US Constellation: starlink operational
LEOCIRCULAR

Current View

Loading 3D Globe...

About Starlink 34374

Description loading...

Upcoming Passes

Passes for default location (London). Set your location on the main map for personalized predictions.

Altitude History

Loading altitude history...

Two-Line Element Set

1 64308U 25123T 26150.16668980 -.00048208 00000-0 -40576-2 0 9990
2 64308 70.0007 349.1063 0002577 273.3163 347.1078 14.98357059 5757
Epoch: May 30, 2026 • Age: 9 hours

Current Status

Altitude 588.1 km
Velocity 7.57 km/s
Sub-Earth Point -46.34°S, 100.15°E
Launch Date Jun 8, 2025
Age 0.9 years
Type internet

Technical Details

Classification Payload
Mass 575.00 kg
Dry Mass 530.00 kg
Total Mass 575.00 kg
Length 0.30 m
Diameter 4.10 m
Span 29.00 m
Shape Box + pan
Manufacturer SPXS
Bus Type Starlink V2MO
Phase Status In Orbit
Owner/State SPXS/US

Most Searched